Location: Newark
(43.0000°N, 1.6781°W)
Time: 10:08:06
(UTC+00:00)

Explorer 7 - Pass Details

Date: 24 April 2021
Orbit: 484 x 677 km, 50.3° (Epoch: 07 May)

Event Time Altitude Azimuth Distance (km) Brightness Sun altitude
Rises 17:29:20 0° 210° (SSW) 2,550 10.6 15.3°
Reaches altitude 10° 17:31:38 10° 198° (SSW) 1,689 9.6 14.9°
Maximum altitude 17:34:59 29° 137° (SE) 950 7.8 14.3°
Drops below altitude 10° 17:38:28 10° 76° (ENE) 1,771 8.9 13.7°
Sets 17:40:56 0° 66° (ENE) 2,699 9.8 13.2°
